Location: Altleiningen
(49.5078°N, 8.0741°E)
Time: 20:28:03
(UTC+00:00)

BREEZE-M DEB (TANK) - Pass Details

Date: 14 June 2025
Orbit: 309 x 13772 km, 49.5° (Epoch: 15 July)

Event Time Altitude Azimuth Distance (km) Brightness Sun altitude
Rises 23:11:46 0° 223° (SW) 6,941 7.8 -17.1°
Enters shadow 23:18:06 - 217° (SW) 4,333 6.7 -17.1°
Exits shadow 23:24:40 28° 180° (S) 1,637 4.4 -17.2°
Maximum altitude 23:25:44 30° 159° (SSE) 1,370 4.1 -17.2°
Drops below altitude 10° 23:28:47 10° 95° (E) 1,686 5.0 -17.2°
Sets 23:30:20 0° 81° (E) 2,295 5.9 -17.2°
